EWG66L EDDS-LPPT

Flight info

Callsign EWG66L
Flight time N/A
Altitude 35000
Route ROTWE5B ROTWE Y126 TUBLO N850 NATOR DCT LUTIX N869 BENOT DCT NEMOS DCT NINTU DCT MEBAK DCT REPSI DCT LERGA DCT MINSO DCT NARAK DCT AGN DCT LATEK N995 PPN N976 NEA DCT ARDID DCT INBOM
Aircraft A319/M-SDE3FGHIRWY/LB1

Departure

Time 2026-05-06 15:23
Airport Stuttgart Airport (EDDS)

Arrival

Time N/A
Airport Lisbon Humberto Delgado Airport (LPPT)
Time Latitude Longitude Altitude Speed Heading
2026-05-06 14:41 48.68915 9.19512 1315 ft 0 kts 344°
2026-05-06 15:12 48.68909 9.19515 1314 ft 4 kts 345°
2026-05-06 15:12 48.68882 9.19525 1313 ft 4 kts 351°
2026-05-06 15:12 48.68856 9.19528 1312 ft 4 kts
2026-05-06 15:12 48.68834 9.19516 1311 ft 4 kts 62°
2026-05-06 15:13 48.68832 9.19509 1311 ft 1 kts 74°
2026-05-06 15:14 48.68832 9.19510 1311 ft 1 kts 74°
2026-05-06 15:15 48.68835 9.19527 1311 ft 3 kts 76°
2026-05-06 15:15 48.68841 9.19563 1310 ft 4 kts 75°
2026-05-06 15:15 48.68850 9.19615 1309 ft 4 kts 74°
2026-05-06 15:15 48.68862 9.19677 1308 ft 10 kts 74°
2026-05-06 15:16 48.68885 9.19796 1305 ft 13 kts 73°
2026-05-06 15:16 48.68840 9.19897 1299 ft 15 kts 162°
2026-05-06 15:16 48.68837 9.20037 1294 ft 15 kts 68°
2026-05-06 15:16 48.68868 9.20186 1291 ft 14 kts 74°
2026-05-06 15:17 48.68894 9.20327 1288 ft 14 kts 74°
2026-05-06 15:17 48.68920 9.20463 1286 ft 14 kts 74°
2026-05-06 15:17 48.68946 9.20600 1280 ft 15 kts 74°
2026-05-06 15:17 48.68973 9.20746 1277 ft 16 kts 76°
2026-05-06 15:18 48.69003 9.20905 1273 ft 17 kts 73°
2026-05-06 15:18 48.69034 9.21065 1278 ft 18 kts 73°
2026-05-06 15:18 48.69069 9.21247 1268 ft 18 kts 73°
2026-05-06 15:18 48.69106 9.21439 1270 ft 19 kts 73°
2026-05-06 15:19 48.69144 9.21640 1257 ft 20 kts 74°
2026-05-06 15:19 48.69179 9.21816 1261 ft 21 kts 75°
2026-05-06 15:19 48.69219 9.22035 1251 ft 22 kts 74°
2026-05-06 15:19 48.69262 9.22263 1241 ft 23 kts 73°
2026-05-06 15:20 48.69305 9.22490 1236 ft 23 kts 74°
2026-05-06 15:20 48.69348 9.22714 1231 ft 23 kts 74°
2026-05-06 15:20 48.69390 9.22943 1227 ft 22 kts 75°
2026-05-06 15:20 48.69433 9.23170 1222 ft 22 kts 74°
2026-05-06 15:21 48.69475 9.23395 1217 ft 22 kts 73°
2026-05-06 15:21 48.69515 9.23602 1213 ft 22 kts 74°
2026-05-06 15:21 48.69557 9.23822 1209 ft 22 kts 73°
2026-05-06 15:21 48.69599 9.24041 1204 ft 22 kts 74°
2026-05-06 15:22 48.69573 9.24257 1195 ft 22 kts 124°
2026-05-06 15:22 48.69439 9.24329 1190 ft 18 kts 187°
2026-05-06 15:22 48.69372 9.24232 1193 ft 11 kts 255°
2026-05-06 15:22 48.69354 9.24130 1195 ft 15 kts 253°
2026-05-06 15:23 48.69260 9.23638 1205 ft 80 kts 253°
2026-05-06 15:23 48.69052 9.22540 1227 ft 132 kts 254°
2026-05-06 15:23 48.68778 9.21116 1554 ft 144 kts 253°
2026-05-06 15:23 48.68523 9.19659 2217 ft 142 kts 256°
2026-05-06 15:24 48.68259 9.18214 2743 ft 149 kts 254°
2026-05-06 15:24 48.67959 9.16615 3090 ft 166 kts 254°
2026-05-06 15:24 48.67625 9.14845 3387 ft 185 kts 253°
2026-05-06 15:24 48.67249 9.12867 3641 ft 208 kts 253°
2026-05-06 15:25 48.66824 9.10628 3982 ft 233 kts 253°
2026-05-06 15:25 48.66359 9.08179 4593 ft 248 kts 253°
2026-05-06 15:25 48.65873 9.05642 5433 ft 254 kts 253°
2026-05-06 15:25 48.65372 9.03043 6351 ft 259 kts 254°
2026-05-06 15:26 48.64861 9.00400 7215 ft 265 kts 253°
2026-05-06 15:26 48.64338 8.97710 8173 ft 268 kts 253°
2026-05-06 15:26 48.63805 8.94985 9046 ft 273 kts 253°
2026-05-06 15:26 48.63265 8.92227 9945 ft 274 kts 253°
2026-05-06 15:27 48.62707 8.89382 10369 ft 294 kts 253°
2026-05-06 15:27 48.61957 8.86386 10604 ft 316 kts 244°
2026-05-06 15:27 48.60825 8.83403 10770 ft 339 kts 235°
2026-05-06 15:27 48.59283 8.80544 10901 ft 362 kts 227°
2026-05-06 15:28 48.57548 8.77689 11310 ft 374 kts 227°
2026-05-06 15:28 48.55773 8.74780 11918 ft 379 kts 227°
2026-05-06 15:28 48.53972 8.71824 12530 ft 385 kts 227°
2026-05-06 15:28 48.52332 8.68687 13173 ft 388 kts 236°
2026-05-06 15:29 48.51051 8.65090 13831 ft 392 kts 246°
2026-05-06 15:29 48.50139 8.61208 14436 ft 395 kts 250°
2026-05-06 15:29 48.48818 8.57585 14911 ft 398 kts 229°
2026-05-06 15:29 48.46673 8.54947 15469 ft 399 kts 209°
2026-05-06 15:30 48.44174 8.53104 16011 ft 402 kts 205°
2026-05-06 15:30 48.41658 8.51236 16513 ft 406 kts 206°
2026-05-06 15:30 48.39133 8.49293 17014 ft 409 kts 207°
2026-05-06 15:30 48.36599 8.47301 17552 ft 410 kts 207°
2026-05-06 15:31 48.34063 8.45298 18020 ft 414 kts 207°
2026-05-06 15:31 48.31494 8.43278 18358 ft 419 kts 207°
2026-05-06 15:31 48.28892 8.41249 18732 ft 423 kts 206°
2026-05-06 15:32 48.23629 8.37199 19526 ft 428 kts 206°
2026-05-06 15:32 48.20970 8.35166 19922 ft 430 kts 206°
2026-05-06 15:32 48.18300 8.33121 20323 ft 432 kts 206°
2026-05-06 15:32 48.15684 8.30862 20701 ft 435 kts 212°
2026-05-06 15:33 48.13140 8.28396 21061 ft 437 kts 212°
2026-05-06 15:33 48.10587 8.25928 21506 ft 436 kts 211°
2026-05-06 15:33 48.08028 8.23461 21900 ft 438 kts 211°
2026-05-06 15:33 48.05465 8.20989 22212 ft 441 kts 211°
2026-05-06 15:34 48.02908 8.18523 22566 ft 443 kts 211°
2026-05-06 15:34 48.00316 8.16028 22909 ft 445 kts 211°
2026-05-06 15:34 47.97706 8.13525 23194 ft 448 kts 211°
2026-05-06 15:34 47.95073 8.11004 23519 ft 449 kts 211°
2026-05-06 15:35 47.92443 8.08486 23832 ft 450 kts 211°
2026-05-06 15:35 47.89806 8.05965 24156 ft 450 kts 211°
2026-05-06 15:35 47.87163 8.03442 24455 ft 451 kts 211°
2026-05-06 15:35 47.84523 8.00922 24767 ft 452 kts 211°
2026-05-06 15:36 47.81875 7.98401 25108 ft 451 kts 211°
2026-05-06 15:36 47.79233 7.95890 25511 ft 449 kts 211°
2026-05-06 15:36 47.76605 7.93391 25933 ft 447 kts 211°
2026-05-06 15:36 47.73984 7.90902 26351 ft 446 kts 211°
2026-05-06 15:37 47.71381 7.88433 26835 ft 442 kts 212°
2026-05-06 15:37 47.68795 7.85980 27366 ft 439 kts 212°
2026-05-06 15:37 47.66233 7.83552 27858 ft 436 kts 212°
2026-05-06 15:37 47.63685 7.81142 28340 ft 433 kts 212°
2026-05-06 15:38 47.61149 7.78745 28829 ft 431 kts 212°
2026-05-06 15:38 47.58630 7.76367 29322 ft 428 kts 212°
2026-05-06 15:38 47.56125 7.74004 29813 ft 426 kts 212°
2026-05-06 15:38 47.53631 7.71658 30244 ft 423 kts 212°
2026-05-06 15:39 47.51159 7.69337 30749 ft 418 kts 212°
2026-05-06 15:39 47.48713 7.67045 31172 ft 416 kts 212°
2026-05-06 15:39 47.46270 7.64760 31566 ft 414 kts 212°
2026-05-06 15:39 47.43842 7.62490 31941 ft 413 kts 212°
2026-05-06 15:40 47.42243 7.60993 32189 ft 412 kts 212°
2026-05-06 15:40 47.39012 7.57965 32673 ft 411 kts 212°
2026-05-06 15:40 47.37412 7.56470 32916 ft 410 kts 212°
2026-05-06 15:40 47.35002 7.54224 33262 ft 410 kts 212°
2026-05-06 15:41 47.32593 7.51985 33613 ft 409 kts 212°
2026-05-06 15:41 47.29407 7.49021 34073 ft 408 kts 212°
2026-05-06 15:41 47.27790 7.47519 34262 ft 408 kts 212°
2026-05-06 15:41 47.25387 7.45291 34548 ft 408 kts 212°
2026-05-06 15:42 47.22974 7.43055 34741 ft 410 kts 212°
2026-05-06 15:42 47.20559 7.40817 34882 ft 411 kts 212°
2026-05-06 15:42 47.15956 7.35808 34918 ft 419 kts 224°
2026-05-06 15:43 47.12247 7.29182 34919 ft 421 kts 230°
2026-05-06 15:43 47.08601 7.22462 34913 ft 420 kts 230°
2026-05-06 15:44 47.04945 7.15769 34899 ft 421 kts 230°
2026-05-06 15:44 47.01281 7.09076 34915 ft 421 kts 230°
2026-05-06 15:45 46.97625 7.02391 34924 ft 421 kts 230°
2026-05-06 15:45 46.93964 6.95699 34949 ft 421 kts 230°
2026-05-06 15:46 46.90291 6.89012 34920 ft 422 kts 230°
2026-05-06 15:46 46.86592 6.82319 34909 ft 424 kts 230°
2026-05-06 15:47 46.82879 6.75623 34906 ft 424 kts 230°
2026-05-06 15:47 46.79160 6.68923 34907 ft 425 kts 230°
2026-05-06 15:48 46.75442 6.62230 34909 ft 424 kts 229°
2026-05-06 15:48 46.71748 6.55600 34922 ft 424 kts 229°